Wind_Speed
42 41 40 38 36 34 35 35 36 37 38 38 38 38 37 36 36 35 34 33 32 33 35 37 38 37 37 37 38 40 42 44 46 49 50 51 49 48 47 45 43 42
46 45 44 43 41 38 36 35 36 37 38 38 38 38 38 37 36 36 35 34 33 33 34 37 39 39 38 37 37 39 41 43 45 48 49 49 49 48 47 44 43 43
46 47 46 46 46 44 41 38 37 37 38 38 38 38 39 38 38 37 36 35 34 34 34 35 39 41 40 38 37 37 38 40 43 46 48 49 49 49 47 44 43 43
43 46 47 48 48 48 47 44 42 41 41 40 40 39 39 39 40 39 38 37 35 35 35 35 37 40 41 40 38 37 37 37 39 44 47 49 50 48 45 43 43 43
40 41 44 46 47 48 49 50 51 51 49 46 43 41 41 41 41 42 41 40 37 36 36 36 37 39 40 41 40 39 38 37 37 40 43 46 48 46 43 42 42 43
38 38 40 41 42 44 47 50 53 56 56 52 48 45 43 43 44 44 44 43 41 38 37 37 37 38 40 41 42 41 40 37 35 37 39 41 44 45 43 42 42 42
36 37 38 39 40 40 42 45 48 51 53 53 52 51 49 48 48 47 47 47 44 41 38 37 37 38 39 40 41 40 39 37 35 35 37 39 42 44 43 42 41 41
36 37 37 38 39 40 41 42 43 46 48 49 51 52 52 52 52 50 49 48 47 44 41 38 36 37 37 38 39 39 39 38 36 36 37 38 41 44 43 41 40 40
38 39 39 38 39 39 41 41 41 42 44 46 49 50 52 53 53 51 48 48 47 45 43 39 36 36 36 36 37 38 39 39 39 37 37 39 42 44 43 41 39 40
38 39 39 40 39 39 40 41 42 40 40 42 45 48 49 50 51 50 48 46 45 44 43 41 38 35 35 35 35 37 38 39 40 39 38 39 41 43 43 42 41 41
38 38 39 39 39 39 39 40 41 41 40 39 40 43 45 46 48 48 47 44 42 41 42 43 40 36 34 33 33 35 36 38 40 40 38 38 40 42 44 44 43 42
37 36 37 37 38 38 39 39 40 41 41 39 38 39 40 41 42 44 45 43 41 39 40 42 42 39 35 33 32 32 34 36 38 39 39 38 39 41 45 46 44 42
36 36 36 36 36 37 37 38 39 40 40 39 37 37 37 37 37 39 41 41 39 39 39 40 42 40 37 35 33 31 32 33 35 38 40 40 40 42 45 46 44 43
36 36 36 35 35 36 37 37 37 38 38 37 36 36 36 35 34 35 39 40 38 37 38 38 40 40 38 35 33 31 30 31 33 36 38 40 40 41 43 45 45 45
36 36 36 34 35 35 35 36 36 36 36 35 35 36 36 35 35 36 39 40 38 36 36 35 36 37 36 34 32 30 30 30 32 34 36 38 38 39 42 44 47 46
36 36 37 36 36 36 35 34 35 35 35 34 36 37 36 35 35 37 39 39 37 36 36 34 32 32 31 30 30 30 30 30 31 32 33 35 36 38 41 43 45 46
36 37 37 37 36 35 34 34 34 34 33 34 36 37 35 33 33 33 36 37 37 37 36 33 31 29 28 29 29 29 30 30 30 30 31 32 34 36 39 41 44 45
36 37 37 37 36 34 34 34 34 33 33 33 35 36 35 34 31 28 29 33 34 35 34 31 29 28 27 28 28 29 29 28 28 28 28 30 32 35 38 41 43 45
36 36 36 35 34 33 33 34 33 33 33 33 33 34 35 34 30 25 23 27 30 32 31 28 26 25 25 25 26 27 27 26 25 25 26 28 31 33 36 39 42 44
36 36 35 35 33 32 32 33 33 33 32 32 32 33 34 33 30 25 20 23 26 29 28 25 22 21 21 22 24 26 25 24 23 23 25 26 28 31 34 36 39 42
37 36 35 34 33 32 32 32 31 32 32 31 31 31 32 32 30 26 20 22 25 26 26 23 19 18 19 20 23 24 22 22 22 23 25 25 25 28 30 32 37 39
36 36 35 34 32 31 30 30 30 31 32 32 31 30 30 31 30 26 21 22 25 26 24 22 17 16 18 20 22 22 21 22 23 23 23 23 23 25 27 30 35 37
35 35 34 33 32 31 29 27 28 30 32 32 32 31 30 30 30 27 22 20 23 25 23 20 16 15 18 21 22 22 21 21 24 23 21 21 22 24 26 30 34 33
34 34 34 33 32 30 27 25 26 29 31 31 32 32 31 30 29 28 24 19 19 22 21 17 15 16 19 21 22 21 20 20 22 21 18 18 21 24 26 30 32 30
34 33 33 32 30 28 25 23 26 30 31 31 32 33 32 30 28 28 25 20 17 17 18 16 15 16 19 21 20 20 20 19 20 19 16 15 19 23 26 28 30 28
35 34 32 30 29 26 23 23 26 29 31 31 32 32 31 29 27 26 25 21 16 14 16 15 15 17 19 21 21 20 19 18 17 16 14 13 16 21 25 28 28 26
Wind_Direction
286 284 282 278 273 270 268 265 263 262 264 267 269 270 270 271 273 275 275 276 277 278 275 271 268 267 266 264 261 258 256 255 253 250 249 249 250 252 255 257 257 256
284 282 282 281 279 275 274 272 269 267 265 266 267 269 271 272 272 275 276 276 276 276 275 272 268 265 264 264 262 260 259 257 256 253 252 252 252 252 254 255 256 255
284 281 279 279 278 276 275 275 275 273 270 268 268 268 269 271 272 274 276 277 277 275 274 273 270 266 262 261 261 259 258 258 258 256 254 253 251 252 253 253 254 254
286 283 281 280 278 276 273 272 275 277 275 273 271 270 269 270 272 273 274 276 278 277 275 272 272 270 265 259 258 258 258 257 258 258 256 253 251 250 251 253 254 254
289 287 285 284 283 280 274 271 272 276 277 276 274 272 270 270 271 272 273 274 276 278 277 274 272 272 268 261 256 255 256 255 256 258 259 256 253 252 252 254 255 255
292 291 289 288 287 286 281 277 274 274 276 277 275 273 271 270 270 271 273 274 274 276 278 276 274 273 271 267 261 256 253 252 254 256 258 257 254 252 252 254 256 257
294 294 293 291 291 290 287 284 280 277 277 275 273 271 270 270 270 269 269 271 273 274 275 276 275 274 273 271 267 261 254 252 253 254 255 254 252 250 251 253 255 257
295 295 294 292 292 291 290 288 284 281 278 274 270 268 267 267 268 267 265 267 270 272 273 274 274 274 273 271 269 265 258 253 253 254 255 253 251 249 249 252 255 256
293 294 293 292 291 291 290 289 287 285 282 278 273 269 267 266 267 266 264 263 265 268 270 272 272 273 273 271 269 266 262 256 251 252 254 253 251 250 249 251 254 255
291 292 292 291 290 289 289 290 289 288 286 284 281 276 272 269 268 268 264 261 261 263 265 268 269 270 271 271 268 266 264 259 252 250 252 252 252 251 250 250 252 253
294 293 292 290 288 287 287 288 289 289 288 288 287 284 280 275 271 269 266 262 260 260 261 263 266 267 268 269 269 265 263 261 254 248 249 252 253 252 251 250 250 251
295 295 293 290 288 286 285 286 287 288 289 289 288 287 284 279 275 271 268 263 260 260 258 259 262 264 265 267 269 267 264 262 256 249 247 250 252 252 252 251 251 251
299 298 296 291 288 286 285 286 286 287 288 288 287 285 282 279 274 270 268 264 260 259 257 256 258 260 262 263 266 268 266 262 258 251 248 250 252 253 253 254 254 254
304 302 299 294 290 287 286 287 287 288 288 288 288 286 280 276 271 266 265 264 260 258 257 254 255 257 258 260 263 266 266 262 258 253 251 252 252 253 254 255 257 255
307 304 301 296 292 290 289 289 288 289 289 288 289 289 283 276 269 264 264 263 260 259 258 255 253 254 256 259 261 262 262 260 256 253 251 251 251 251 251 253 254 254
306 303 300 297 295 292 291 290 289 290 290 286 287 289 286 279 273 268 266 263 259 259 258 255 253 253 255 257 259 259 258 256 255 253 252 250 249 249 249 250 253 254
305 302 299 297 296 294 292 291 290 291 292 289 287 288 288 287 282 274 267 261 258 258 255 249 249 252 253 254 254 254 253 255 256 255 253 250 248 248 248 249 251 252
304 301 298 297 297 295 292 289 290 293 294 293 292 291 292 294 292 282 266 255 253 258 254 243 242 248 249 249 250 249 250 252 255 257 255 251 249 248 248 249 249 250
306 303 299 298 297 295 291 290 291 295 297 297 296 295 295 295 298 292 269 250 251 259 254 241 239 243 244 246 247 247 247 248 253 257 258 254 250 248 248 249 249 249
309 305 301 300 299 297 293 292 294 298 300 300 299 298 297 296 299 299 275 252 255 260 250 238 239 244 244 245 246 245 246 247 251 256 257 255 251 248 247 247 248 247
309 306 303 302 301 299 296 294 298 300 301 301 300 300 300 298 300 302 283 258 259 260 246 235 240 245 243 243 244 244 246 249 251 253 255 256 253 250 247 245 244 245
309 307 305 304 303 303 300 297 299 300 300 302 303 303 302 299 298 302 292 267 260 260 248 236 239 244 241 242 241 240 243 249 252 254 253 255 254 249 244 241 241 241
310 309 308 306 305 306 303 300 300 299 300 303 305 304 304 300 296 298 297 279 263 260 249 237 240 245 241 240 241 239 239 244 251 255 252 249 249 245 240 238 238 238
308 310 310 308 305 305 304 300 299 299 300 303 303 303 303 301 296 294 294 287 270 260 250 238 240 245 243 243 243 241 239 241 250 256 249 241 243 242 238 236 234 234
304 308 309 307 304 304 303 300 297 297 300 302 301 301 300 298 295 291 290 291 282 262 246 238 241 244 243 244 241 239 240 242 250 254 245 235 238 239 236 233 230 231
303 305 308 306 303 303 302 299 295 295 299 301 300 300 299 296 293 288 286 291 289 264 241 239 245 244 243 246 243 239 239 241 248 252 238 226 233 237 233 230 229 231
Height
2920 2918 2916 2914 2912 2910 2909 2908 2907 2907 2907 2906 2906 2905 2903 2902 2902 2901 2900 2899 2898 2898 2897 2897 2896 2896 2895 2895 2894 2894 2895 2895 2896 2896 2897 2897 2899 2900 2900 2900 2901 2901
2912 2911 2910 2908 2907 2905 2903 2902 2901 2900 2900 2900 2900 2899 2898 2897 2895 2895 2894 2893 2893 2892 2892 2892 2891 2891 2890 2890 2889 2889 2889 2890 2890 2890 2891 2892 2893 2894 2894 2895 2895 2895
2905 2903 2902 2901 2900 2899 2898 2896 2895 2894 2894 2894 2894 2893 2892 2891 2890 2889 2888 2888 2887 2886 2886 2886 2885 2884 2884 2884 2884 2884 2884 2884 2885 2885 2885 2886 2887 2887 2888 2889 2889 2889
2899 2896 2894 2893 2891 2891 2891 2890 2890 2889 2888 2888 2887 2886 2886 2885 2884 2884 2883 2882 2881 2881 2880 2880 2879 2878 2878 2878 2878 2877 2878 2878 2879 2879 2879 2880 2881 2881 2882 2882 2882 2883
2892 2890 2887 2885 2883 2882 2882 2882 2882 2881 2881 2881 2880 2880 2879 2878 2878 2878 2877 2876 2875 2875 2874 2874 2873 2873 2872 2872 2871 2871 2871 2872 2872 2873 2873 2874 2875 2876 2877 2877 2877 2877
2885 2883 2881 2878 2877 2875 2874 2873 2872 2871 2872 2872 2873 2873 2872 2871 2871 2871 2871 2870 2869 2869 2868 2867 2867 2866 2866 2865 2865 2865 2864 2865 2866 2867 2867 2868 2870 2870 2871 2871 2871 2872
2879 2877 2874 2872 2871 2869 2868 2866 2865 2863 2862 2863 2864 2864 2864 2864 2864 2864 2864 2863 2863 2863 2862 2862 2861 2860 2860 2859 2859 2859 2859 2859 2860 2861 2861 2862 2863 2864 2865 2866 2866 2867
2873 2871 2869 2867 2865 2863 2862 2860 2859 2857 2855 2854 2855 2855 2855 2855 2856 2856 2856 2856 2856 2856 2856 2856 2855 2854 2854 2853 2853 2853 2853 2854 2854 2855 2856 2857 2857 2858 2859 2860 2861 2862
2867 2864 2862 2860 2859 2857 2856 2854 2853 2851 2849 2847 2846 2846 2846 2846 2847 2847 2848 2848 2849 2850 2850 2849 2849 2848 2847 2847 2848 2848 2848 2848 2848 2849 2850 2851 2852 2852 2854 2855 2856 2856
2861 2858 2856 2854 2852 2850 2849 2847 2845 2844 2843 2841 2839 2838 2838 2838 2838 2839 2839 2840 2841 2842 2843 2843 2842 2842 2841 2841 2842 2842 2842 2842 2842 2843 2844 2845 2846 2847 2849 2849 2849 2850
2854 2852 2849 2847 2845 2844 2842 2841 2839 2837 2835 2834 2833 2831 2830 2830 2830 2830 2831 2832 2834 2834 2835 2836 2836 2836 2836 2835 2835 2836 2836 2836 2836 2837 2839 2840 2841 2842 2843 2843 2843 2844
2847 2845 2843 2841 2839 2837 2836 2834 2832 2830 2828 2827 2826 2825 2824 2823 2823 2823 2823 2825 2826 2827 2827 2828 2829 2830 2830 2830 2829 2830 2830 2830 2831 2832 2833 2834 2835 2837 2838 2838 2838 2839
2841 2839 2837 2835 2833 2831 2830 2828 2826 2824 2822 2821 2820 2818 2817 2816 2816 2816 2816 2816 2818 2819 2819 2820 2822 2823 2824 2824 2824 2824 2824 2825 2825 2826 2827 2828 2829 2831 2832 2833 2834 2834
2835 2833 2831 2829 2827 2825 2824 2822 2820 2818 2816 2815 2814 2812 2811 2810 2809 2809 2809 2809 2810 2812 2812 2813 2814 2816 2817 2818 2818 2818 2819 2819 2819 2820 2821 2822 2824 2825 2827 2828 2829 2829
2829 2827 2824 2823 2821 2819 2818 2816 2814 2813 2811 2810 2809 2807 2805 2804 2803 2802 2801 2802 2803 2805 2805 2805 2806 2809 2810 2811 2812 2812 2813 2813 2813 2814 2815 2816 2818 2819 2820 2822 2823 2824
2824 2821 2819 2817 2815 2813 2812 2811 2809 2808 2806 2805 2804 2802 2800 2798 2796 2795 2795 2796 2797 2798 2798 2799 2799 2801 2803 2805 2806 2806 2806 2807 2808 2808 2809 2810 2812 2813 2814 2816 2817 2819
2818 2816 2813 2811 2810 2808 2807 2805 2804 2803 2801 2800 2798 2797 2794 2792 2790 2789 2789 2790 2791 2791 2792 2792 2793 2795 2796 2798 2799 2800 2800 2801 2802 2803 2803 2804 2806 2807 2808 2810 2812 2813
2814 2811 2809 2807 2805 2803 2802 2801 2799 2798 2796 2795 2793 2791 2789 2787 2785 2784 2783 2783 2784 2785 2786 2787 2788 2789 2790 2791 2793 2794 2794 2795 2796 2797 2798 2799 2800 2801 2803 2805 2806 2808
2809 2806 2804 2802 2801 2799 2797 2796 2794 2793 2792 2790 2788 2786 2784 2782 2781 2779 2777 2777 2778 2779 2781 2782 2782 2783 2784 2785 2786 2787 2788 2789 2790 2791 2792 2794 2795 2797 2798 2800 2801 2804
2805 2802 2799 2798 2796 2795 2793 2791 2790 2789 2787 2785 2783 2781 2779 2777 2776 2774 2773 2773 2774 2774 2776 2777 2778 2778 2778 2779 2780 2781 2782 2783 2784 2786 2787 2789 2790 2792 2793 2795 2797 2799
2800 2797 2795 2793 2792 2790 2789 2787 2786 2785 2783 2781 2779 2777 2775 2773 2771 2770 2769 2769 2769 2770 2771 2772 2773 2774 2774 2774 2775 2776 2777 2777 2779 2782 2783 2784 2785 2787 2789 2791 2793 2795
2796 2793 2791 2789 2787 2786 2784 2783 2782 2780 2779 2777 2775 2773 2771 2769 2767 2766 2765 2765 2765 2766 2767 2768 2769 2769 2769 2770 2771 2772 2772 2773 2775 2777 2779 2780 2781 2782 2784 2787 2788 2790
2792 2789 2787 2785 2783 2782 2780 2779 2778 2776 2774 2772 2770 2768 2767 2765 2764 2763 2762 2762 2762 2762 2763 2764 2765 2765 2766 2766 2767 2768 2769 2769 2770 2773 2775 2776 2776 2778 2780 2782 2784 2785
2788 2785 2783 2780 2779 2777 2776 2775 2774 2772 2770 2768 2766 2764 2763 2762 2760 2759 2759 2758 2758 2758 2759 2761 2761 2762 2762 2763 2764 2764 2765 2765 2766 2768 2770 2772 2772 2774 2775 2777 2779 2781
2784 2782 2779 2776 2774 2773 2772 2771 2770 2768 2767 2765 2763 2760 2759 2758 2756 2755 2755 2755 2754 2755 2755 2757 2758 2759 2759 2760 2761 2761 2761 2762 2763 2764 2767 2768 2769 2770 2771 2773 2775 2777
2779 2777 2775 2773 2771 2769 2769 2768 2766 2764 2763 2761 2759 2757 2755 2753 2752 2752 2751 2751 2751 2751 2752 2754 2755 2756 2757 2757 2758 2758 2757 2758 2760 2761 2763 2765 2766 2766 2768 2770 2772 2774